Flag for Mexico Weather past 2 weeks in Mexico City, Federal District, Mexico

Now
72 °F

Broken clouds.


Feels Like: 77 °F
Forecast: N/A
Wind: 8 mph from North

Location: Mexico City / Licenci

Current Time: Sep 23, 2014 at 3:43:51 PM

Latest Report: Sep 23, 2014 at 1:47 PM


Visibility: 8 mi

Pressure: 30.31 "Hg

Humidity: 44%

Dew point: 48 °F

Location of Mexico CityLocation

Historic Weather in Mexico City — Graph

°F

Mexico City temperature yesterday

Maximum temperature yesterday: 73 °F (at 2:01 PM)
Minimum temperature yesterday: 57 °F (at 7:22 AM)
Average temperature yesterday: 64 °F

Past Weeks' High & Low Weather Summary

 TemperatureHumidityPressure
High79 °F (Sep 18, 1:43 PM)94% (Sep 10, 4:47 PM)30.40 "Hg (Sep 10, 4:47 PM)
Low52 °F (Sep 20, 5:45 AM)28% (Sep 18, 1:43 PM)29.56 "Hg (Sep 11, 6:46 AM)
Average64 °F68%30.16 "Hg
* Reported Sep 8 1:53 PM — Sep 23 1:47 PM, Mexico City, Weather by CustomWeather, © 2014

Note: Actual official high and low records may vary slightly from our data, if they occured in-between our weather recording intervals... More about our weather records

Advertising

Mexico City weather history for previous 24 hours

 ConditionsComfort  
Time TempWeatherWind HumidityBarometerVisibility
1:47 PM
Sep 23
72 °FBroken clouds.8 mph44%30.31 "Hg8 mi
11:45 AM68 °FPartly sunny.3 mph53%30.35 "Hg8 mi
10:21 AM64 °FBroken clouds.8 mph60%30.36 "Hg8 mi
8:21 AM59 °FPartly cloudy.8 mph77%30.34 "Hg7 mi
7:46 AM59 °FPassing clouds.7 mph77%30.32 "Hg7 mi
7:25 AM59 °FPassing clouds.9 mph77%30.32 "Hg7 mi
6:48 AM59 °FPassing clouds.2 mph77%29.88 "Hg12 mi
5:45 AM59 °FPassing clouds.6 mph77%30.30 "Hg15 mi
3:48 AM61 °FPassing clouds.2 mph72%29.76 "Hg12 mi
2:51 AM61 °FPassing clouds.5 mph77%30.31 "Hg12 mi
1:44 AM63 °FPassing clouds.6 mph73%30.32 "Hg12 mi
12:56 AM63 °FPartly cloudy.6 mph73%30.34 "Hg10 mi
11:42 PM
Sep 22
63 °FPartly cloudy.6 mph73%30.34 "Hg10 mi
10:45 PM63 °FPartly cloudy.13 mph73%30.34 "Hg9 mi
9:43 PM63 °FPartly cloudy.6 mph83%29.85 "Hg9 mi
8:45 PM61 °FPartly cloudy.6 mph88%30.29 "Hg8 mi
8:14 PM61 °FSleet. Cloudy.N/A88%N/AN/A
7:47 PM61 °FLight rain. More clouds than sun.2 mph88%30.28 "Hg5 mi
6:55 PM61 °FThunderstorms. More clouds than sun.9 mph83%29.85 "Hg6 mi
6:00 PM61 °FThunderstorms. More clouds than sun.6 mph88%30.26 "Hg3 mi
4:53 PM73 °FPartly sunny.8 mph44%30.21 "Hg7 mi
3:45 PM73 °FBroken clouds.18 mph44%29.70 "Hg8 mi
Weather by CustomWeather, © 2014

See weather overviewHow to use our weather pages